Regional Weather Roundup
Issued by NWS

Home | Current Version | Previous Version | Graphics & Text | Print | Product List | Glossary On
Versions: 1 2 3 4 5 6 7 8 9 10 11 12 13 14 15 16 17 18 19 20 21 22 23 24 25 26 27 28 29 30 31 32 33 34 35 36 37 38 39 40 41 42 43 44 45 46 47 48 49 50
000
ASUS45 KTFX 171310
RWRMT
MONTANA REGIONAL WEATHER ROUNDUP
NATIONAL WEATHER SERVICE GREAT FALLS MT
600 AM MST SAT FEB 17 2018

NOTE: "FAIR" INDICATES FEW OR NO CLOUDS BELOW 12000 FEET WITH NO
SIGNIFICANT WEATHER AND/OR OBSTRUCTIONS TO VISIBILITY.

MTZ001>007-043-171400-
WEST OF THE DIVIDE

CITY           SKY/WX    TMP DP  RH WIND       PRES   REMARKS
KALISPELL      MOCLDY    12  10  92 CALM      29.93F
MISSOULA       LGT SNOW  27  25  92 N3        29.96F FOG
BUTTE          LGT SNOW  22  18  85 N3        29.90F FOG
MULLAN PASS    LGT SNOW  18  16  92 S6        29.80  VSB 3/4 WCI  10
ANACONDA         N/A     25  21  86 SE3       29.90F
DEER LODGE       N/A     27  21  80 CALM      29.93F
EUREKA           N/A     19  16  86 MISG      29.93F
HAMILTON         N/A     30  28  93 MISG      29.94F
PLAINS           N/A     28  20  72 CALM      29.98F
RONAN            N/A     27  21  80 CALM      29.96F
THOMPSON FALLS   N/A     26  24  92 CALM      30.02F
$$

MTZ008-052>055-171400-
SOUTHWEST MONTANA

CITY           SKY/WX    TMP DP  RH WIND       PRES   REMARKS
BOZEMAN        CLOUDY    24  16  71 SE8       29.95S WCI  15
DILLON         FAIR      20  15  81 SW12      29.92S WCI   8
ENNIS          CLOUDY    28  18  64 SE13      29.97F WCI  18
W YELLOWSTONE  CLOUDY    19  16  86 SW15G22   29.94S FOG     WCI   5
THREE FORKS      N/A     25  18  74 CALM      29.93F
TWIN BRIDGES     N/A     20  14  77 CALM      29.93F
$$

MTZ009-010-012-014-046-048-049-054-171400-
EAST SLOPES AND CENTRAL MONTANA

CITY           SKY/WX    TMP DP  RH WIND       PRES   REMARKS
CUT BANK       CLOUDY     9   8  96 SE6       29.91F WCI  -1
GREAT FALLS    FAIR       8   6  92 SE7       29.95F FOG     WCI  -3
MALMSTROM AFB  FOG        7   5  92 S6        29.97F VSB 3/4 WCI  -3
HELENA         MOCLDY    18  16  92 CALM      29.94F
AUGUSTA        FOG       11  10  97 S6        29.89F VSB 1/4 WCI   2
BOWMANS CRNR   FAIR      11  10  93 S6        29.89F WCI   2
CONRAD           N/A      7   3  83 NW5       29.96
FAIRFIELD      FAIR      11   8  88 SE5       29.92F
POWER          FOG        9   6  88 S5        29.93F VSB 1/2
RAYNESFORD     FAIR       9   4  83 CALM      29.95F
ULM            FOG        3   1  88 CALM      29.96F VSB 3/8
WHITE SULPHUR    N/A     12   9  85 S5        29.88S
$$

MTZ011-013-016-021-045-047-050-051-171400-
NORTH CENTRAL MONTANA

CITY           SKY/WX    TMP DP  RH WIND       PRES   REMARKS
HAVRE          CLOUDY    12   9  87 SW6       30.01F WCI   3
LEWISTOWN      LGT SNOW  12  11  95 W9        29.95S FOG     WCI   0
N BAR RANCH    CLOUDY    16   7  67 W13       29.94S WCI   2
CHINOOK          N/A     12   9  85 W9        30.02F WCI   0
GEYSER         MOCLDY    10   6  84 SE5       29.95S
STANFORD       FLURRIES  11   9  92 CALM      29.93F
WINIFRED       FLURRIES  14  12  91 W9        29.96F WCI   2
$$

MTZ017>020-022>027-061-062-171400-
NORTHEAST MONTANA

CITY           SKY/WX    TMP DP  RH WIND       PRES   REMARKS
GLASGOW        FAIR       5   0  79 NW8       30.00R WCI  -8
GLENDIVE       FAIR      11   7  84 NW14      29.98R WCI  -5
JORDAN           N/A      5   1  83 W7        30.01R WCI  -7
MALTA          CLOUDY     1   0  92 W5        30.01F
SIDNEY         FAIR      10   6  84 NW14      29.97R WCI  -6
WOLF POINT     FAIR       7   2  80 W9        30.02R WCI  -7
PLENTYWOOD       N/A     12   9  85 W15       29.91R WCI  -4
POPLAR           N/A      5   0  78 W12       30.01R WCI -11
SCOBEY           N/A      5  -4  66 W13       29.91R WCI -12
$$

MTZ028>42-056>058-171400-
SOUTHCENTRAL AND SOUTHEAST MONTANA

CITY           SKY/WX    TMP DP  RH WIND       PRES   REMARKS
BAKER          FAIR      11   9  92 W14       29.94R WCI  -5
BILLINGS       FLURRIES  22  20  92 NE8       29.97R WCI  12
LIVINGSTON     CLOUDY    28  19  69 W17       29.90F WCI  16
MILES CITY     CLOUDY    16  11  80 NW10      30.03R WCI   4
BIG TIMBER     CLOUDY    27  16  63 NW12      29.93S WCI  16
EKALAKA          N/A     14   9  81 NW6       29.90R WCI   5
FORSYTH          N/A     18  18 100 W5        30.03R
HARLOWTON      MOCLDY    15  10  83 N22       29.90S WCI  -3
LAUREL           N/A     21  19  93 N6        29.98S WCI  14
$$

REGIONAL REPORTS...DAKOTAS

CITY           SKY/WX    TMP DP  RH WIND       PRES   REMARKS
WILLISTON      FAIR      12   8  84 W10       29.95R WCI  -1
MINOT          FAIR      11   6  81 W10       29.86R WCI  -3
DICKINSON      FAIR      12   9  87 W15       29.87R WCI  -4
BEACH          FAIR      10   9  92 W13       29.96R WCI  -5
CROSBY         CLOUDY    12   9  85 W15       29.91R WCI  -4
TIOGA          MOCLDY     7   7 100 W13       29.89R WCI  -9
WATFORD CITY   CLOUDY    14  10  85 W12       29.92S WCI   0
BISMARCK       CLOUDY    18  14  84 NW8       29.90R WCI   8
GRAND FORKS    FAIR      13   9  84 W10       29.81R WCI   0
FARGO          FAIR      16  12  84 W10       29.83R WCI   4
BUFFALO SD       N/A     25  20  81 NW30      29.82R WCI   8
RAPID CITY     FAIR      28  19  69 NW22G30   29.91R WCI  14
$$

REGIONAL REPORTS...WYOMING/IDAHO/WASHINGTON

CITY           SKY/WX    TMP DP  RH WIND       PRES   REMARKS
GILLETTE       CLOUDY    24  20  84 NW12      29.94R WCI  13
SHERIDAN       LGT SNOW  25  23  92 W5        29.96F FOG
BUFFALO WY     CLOUDY    22  21  96 N3        29.93S
CODY           FAIR      20  14  77 CALM      29.94R
YELLOWSTONE LA   N/A     15  11  83 VRB3      29.95R
IDAHO FALLS    CLOUDY    27  21  78 S21       30.09R WCI  13
SALMON         FAIR      27  23  85 VRB3      29.99F
BOISE          CLOUDY    33  27  78 SE7       30.14S WCI  27
SPOKANE        CLOUDY    30  29  96 E6        29.93F WCI  24
$$

REGIONAL REPORTS...ALBERTA

CITY           SKY/WX    TMP DP  RH WIND       PRES   REMARKS
CALGARY        LGT SNOW  10   3  72 N5        29.92S
CARDSTON         N/A     12   9  85 SE6         N/A  WCI   3
EDMONTON       CLEAR      5  -6  61 W14       29.96S WCI -12
FORT MCMURRAY  FLURRIES   7   1  78 N7        29.88S WCI  -5
HIGH LEVEL     CLOUDY    10   3  72 NW10G21   30.01R WCI  -3
LETHBRIDGE     FLURRIES  14  10  85 E8        29.95F WCI   3
LLOYDMINSTER   CLEAR      0  -6  78 W18       29.87R WCI -22
MEDICINE HAT   MOCLDY     3   0  85 S3        30.02F
MILK RIVER       N/A     12  10  92 E5          N/A
ONEFOUR          N/A      9   7  92 NW10        N/A  WCI  -6
PEACE RIVER    CLEAR      3  -4  72 NW13      30.01S WCI -14
PINCHER CREEK  FOG       10   9  92 SE3       29.87F VSB 3/8
WATERTON GATE    N/A      9   5  85 NE5         N/A
$$

REGIONAL REPORTS...SASKATCHEWAN

CITY           SKY/WX    TMP DP  RH WIND       PRES   REMARKS
CYPRESS HILLS    N/A      3   0  85 NW10        N/A  WCI -12
ESTEVAN        MOCLDY     9   5  85 W12       29.89R WCI  -6
MOOSE JAW        N/A      5   0  78 W18         N/A  WCI -15
PRINCE ALBERT  LGT SNOW   3  -2  78 W8        29.85R FOG     WCI -10
REGINA         FLURRIES   9   5  85 W17       29.87R WCI -10
ROCKGLEN         N/A      7   3  85 W14G21      N/A  WCI -10
SASKATOON      MOCLDY    -4  -9  77 W14       29.90R WCI -24
SWIFT CURRENT  PTCLDY     0  -6  78 W13       29.91R WCI -18
VAL MARIE        N/A      3  -2  78 NW10        N/A  WCI -12
$$



USA.gov is the U.S. government's official web portal to all federal, state and local government web resources and services.